CAPE
0 0 0 1 0 0 0 0 0 2 5 10 14 20 22 15 10 22 8 5 15 17 27 21 17 13 9
0 0 1 0 0 0 0 0 0 0 0 0 1 5 13 17 8 11 9 13 12 5 3 2 6 9 9
0 1 1 1 0 0 0 0 0 0 3 6 9 13 10 10 12 14 1 0 0 1 2 4 4 6 8
1 1 1 1 1 1 1 1 1 1 1 0 0 0 0 0 0 0 0 0 0 0 1 3 2 4 5
0 0 1 0 0 0 0 0 0 0 0 0 0 0 0 0 0 0 0 0 0 0 0 1 2 4 2
0 0 0 0 0 0 0 0 0 0 0 0 0 0 0 0 0 0 0 0 0 0 1 7 4 0 3
0 0 0 0 0 0 0 0 0 0 0 0 0 0 0 0 0 0 0 0 0 1 3 4 3 1 0
0 0 0 0 0 0 0 0 0 0 0 0 0 0 0 0 0 0 0 0 0 0 1 4 1 2 2
0 0 0 0 0 0 0 0 0 0 0 0 0 0 0 0 0 0 0 0 0 1 0 0 0 1 0
0 0 0 0 0 0 0 0 0 0 0 0 0 0 0 0 0 0 0 0 0 0 0 0 0 0 0
0 0 0 0 0 0 0 0 0 0 0 0 0 0 0 0 0 0 0 0 0 0 0 0 0 0 0
0 0 0 0 0 0 0 0 0 0 0 0 0 0 0 1 0 0 0 0 0 0 0 0 0 0 1
0 0 0 0 0 0 0 0 0 0 0 0 0 0 0 0 0 1 0 0 0 0 0 0 0 0 0
0 0 0 0 0 0 0 0 0 0 0 0 0 0 0 0 0 1 0 0 0 0 0 0 0 0 0
0 0 0 0 0 0 0 0 0 0 0 0 0 0 0 0 0 0 0 0 0 0 0 1 1 0 0
0 0 0 0 0 0 0 0 0 0 0 0 0 0 0 0 0 0 0 0 0 0 0 0 0 0 0
0 0 0 0 0 0 0 0 0 0 0 0 0 0 0 0 0 0 0 0 0 0 0 0 0 0 0
CIN
0 0 0 0 0 0 0 0 0 0 0 -1 0 0 0 0 0 0 0 0 0 0 0 0 0 0 0
0 0 0 0 0 0 0 0 0 0 0 0 0 0 0 0 0 0 0 0 0 0 0 0 -1 0 -1
0 0 0 0 0 0 0 0 0 0 0 0 0 0 0 0 0 0 0 0 0 0 0 0 0 -1 0
0 0 0 0 0 0 0 0 0 0 0 0 0 0 0 0 0 0 0 0 0 0 0 0 0 0 -1
0 0 0 0 0 0 0 0 0 0 0 0 0 0 0 0 0 0 0 0 0 0 0 0 0 0 0
0 0 0 0 0 0 0 0 0 0 0 0 0 0 0 0 0 0 0 0 0 0 0 -1 0 -1 0
0 0 0 0 0 0 0 0 0 0 0 0 0 0 0 0 0 0 0 0 0 0 0 0 0 -1 0
0 0 0 0 0 0 0 0 0 0 0 0 0 0 0 0 0 0 0 0 0 0 0 0 0 0 0
0 0 0 0 0 0 0 0 0 0 0 0 0 0 0 0 0 0 0 0 0 0 0 0 0 0 0
0 0 0 0 0 0 0 0 0 0 0 0 0 0 0 0 0 0 0 0 0 0 0 0 0 0 0
0 0 0 0 0 0 0 0 0 0 0 0 0 0 0 0 0 0 0 0 0 0 0 0 0 0 0
0 0 0 0 0 0 0 0 0 0 0 0 0 0 0 0 0 0 0 0 0 0 0 0 0 0 0
0 0 0 0 0 0 0 0 0 0 0 0 0 0 0 0 0 0 0 0 0 0 0 0 0 0 0
0 0 0 0 0 0 0 0 0 0 0 0 0 0 0 0 0 0 0 0 0 0 0 0 0 0 0
0 0 0 0 0 0 0 0 0 0 0 0 0 0 0 0 0 0 0 0 0 0 0 0 0 0 0
0 0 0 0 0 0 0 0 0 0 0 0 0 0 0 0 0 0 0 0 0 0 0 0 0 0 0
0 0 0 0 0 0 0 0 0 0 0 0 0 0 0 0 0 0 0 0 0 0 0 0 0 0 0
Wind_Speed
23 23 26 23 20 20 21 15 14 15 16 21 18 19 23 20 19 21 23 24 25 25 23 26 27 29 30
22 21 22 24 20 20 17 16 11 16 25 26 26 25 33 21 25 18 25 24 26 24 27 30 30 29 29
20 19 17 20 22 21 16 14 12 8 5 2 13 20 23 24 20 19 22 24 27 29 29 29 28 29 30
19 20 19 19 20 21 19 17 17 16 15 15 17 21 23 23 24 25 27 28 29 30 29 29 27 27 27
20 20 20 21 21 20 19 18 17 18 18 18 20 23 24 27 30 30 28 27 25 23 23 24 24 24 25
21 21 21 21 21 21 21 22 22 20 23 24 24 26 27 27 26 24 23 22 21 22 22 23 25 25 27
22 22 21 21 20 21 21 22 22 24 26 26 23 25 22 22 21 21 21 22 23 24 24 25 27 27 27
22 21 21 20 20 21 21 22 23 22 20 23 21 23 23 23 23 23 24 24 24 25 27 26 27 29 30
23 23 23 22 20 19 22 24 26 23 20 21 22 26 26 23 21 22 24 24 22 22 23 25 27 29 31
25 24 23 23 22 19 20 22 23 24 20 23 25 26 27 20 20 24 27 24 24 24 23 24 27 30 33
24 23 23 22 22 21 20 20 22 22 21 23 24 25 24 26 26 26 27 25 24 26 27 30 32 31 33
23 23 22 22 22 23 22 21 19 20 21 23 25 24 26 29 29 26 28 28 27 27 28 29 32 35 32
24 23 22 22 23 23 24 24 22 21 21 21 22 23 23 25 29 31 33 27 30 26 27 29 31 34 39
24 23 22 23 24 23 27 30 29 27 22 23 21 22 24 25 28 31 28 27 27 29 29 30 33 33 34
24 24 24 24 24 25 28 29 28 28 29 28 24 23 23 26 29 28 27 26 25 27 29 31 31 32 32
25 25 25 25 27 28 28 28 29 28 29 29 28 29 28 28 19 25 26 24 23 22 25 30 37 34 31
26 27 27 28 28 29 29 29 30 29 29 27 27 27 30 32 28 20 22 22 24 22 21 26 31 42 37
Wind_Direction
356 1 351 354 6 10 16 24 350 326 319 304 311 309 301 306 312 308 305 304 302 303 307 303 301 296 293
360 7 5 352 4 8 17 16 32 333 298 301 303 302 281 307 304 312 302 304 301 305 302 298 295 297 297
8 17 22 7 358 1 13 13 13 21 14 341 322 311 307 306 310 311 307 304 301 298 299 299 300 299 296
10 12 17 17 10 5 3 4 358 356 349 342 330 317 315 315 312 309 306 303 302 300 300 298 299 298 297
3 5 5 5 4 4 4 3 1 357 349 340 331 321 316 312 308 306 307 306 305 305 304 303 301 302 301
358 357 357 357 357 354 352 348 343 347 338 329 327 321 317 315 315 313 311 310 308 307 306 304 303 303 302
355 354 353 354 354 350 348 345 340 337 333 328 331 326 330 328 325 320 315 310 306 304 303 303 303 302 302
355 354 353 352 351 348 346 344 341 341 343 335 340 333 333 330 325 320 313 307 305 304 303 302 302 301 300
350 348 348 347 349 348 345 342 339 342 345 340 340 333 331 332 335 330 326 320 314 310 307 304 303 301 299
347 347 348 349 350 351 348 344 343 341 347 339 336 336 330 337 337 329 324 319 315 311 309 308 305 301 298
350 352 354 355 355 353 353 349 344 339 342 339 333 331 329 328 327 325 323 320 315 308 305 304 301 298 297
354 353 354 353 351 348 346 345 343 338 336 333 328 328 326 324 323 326 324 321 315 309 306 304 298 295 295
351 352 354 351 348 346 345 344 343 340 336 331 326 325 324 322 320 322 324 325 319 315 312 306 300 297 294
350 353 353 351 347 346 341 339 338 339 342 337 332 329 324 321 319 319 322 321 320 316 312 307 301 298 295
348 348 348 347 344 343 339 339 338 336 335 335 334 330 323 319 318 318 319 319 318 317 314 309 305 302 299
344 343 343 341 339 338 338 336 334 334 333 333 333 331 329 325 312 319 322 321 322 321 316 311 305 304 302
340 340 339 338 338 336 335 335 333 333 332 332 332 330 327 324 328 323 322 327 326 322 317 311 308 299 302